SCP
0 0 0 0 0 0 0 0 0 0 0 0 0 0 0 0 0 0 0 0 0 0 0 0 0 0 0 0 0 0 0 0 0 0 0 0 0 0 0 0 0 0 0
0 0 0 0 0 0 0 0 0 0 0 0 0 0 0 0 0 0 0 0 0 0 0 0 0 0 0 0 0 0 0 0 0 0 0 0 0 0 0 0 0 0 0
0 0 0 0 0 0 0 0 0 0 0 0 0 0 0 0 0 0 0 0 0 0 0 0 0 0 0 0 0 0 0 0 0 0 0 0 0 0 0 0 0 0 0
0 0 0 0 0 0 0 0 0 0 0 0 0 0 0 0 0 0 0 0 0 0 0 0 0 0 0 0 0 0 0 0 0 0 0 0 0 0 0 0 0 0 0
0 0 0 0 0 0 0 0 0 0 0 0 0 0 0 0 0 0 0 0 0 0 0 0 0 0 0 0 0 0 0 0 0 0 0 0 0 0 0 0 0 0 0
0 0 0 0 0 0 0 0 0 0 0 0 0 0 0 0 0 0 0 0 0 0 0 0 0 0 0 0 0 0 0 0 0 0 0 0 0 0 0 0 0 0 0
0 0 0 0 0 0 0 0 0 0 0 0 0 0 0 0 0 0 0 0 0 0 0 0 0 0 0 0 0 0 0 0 0 0 0 0 0 0 0 0 0 0 0
0 0 0 0 0 0 0 0 0 0 0 0 0 0 0 0 0 0 0 0 0 0 0 0 0 0 0 0 0 0 0 0 0 0 0 0 0 0 0 0 0 0 0
0 0 0 0 0 0 0 0 0 0 0 0 0 0 0 0 0 0 0 0 0 0 0 0 0 0 0 0 0 0 0 0 0 0 0 0 0 0 0 0 0 0 0
0 0 0 0 0 0 0 0 0 0 0 0 0 0 0 0 0 0 0 0 0 0 0 0 0 0 0 0 0 0 0 0 0 0 0 0 0 0 0 0 0 0 0
0 0 0 0 0 0 0 0 0 0 0 0 0 0 0 0 0 0 0 0 0 0 0 0 0 0 0 0 0 0 0 0 0 0 0 0 0 0 0 0 0 0 0
0 0 0 0 0 0 0 0 0 0 0 0 0 0 0 0 0 0 0 0 0 0 0 0 0 0 0 0 0 0 0 0 0 0 0 0 0 0 0 0 0 0 0
0 0 0 0 0 0 0 0 0 0 0 0 0 0 0 0 0 0 0 0 0 0 0 0 0 0 0 0 0 0 0 0 0 0 0 0 0 0 0 0 0 0 0
0 0 0 0 0 0 0 0 0 0 0 0 0 0 0 0 0 0 0 0 0 0 0 0 0 0 0 0 0 0 0 0 0 0 0 0 0 0 0 0 0 0 0
0 0 0 0 0 0 0 0 0 0 0 0 0 0 0 0 0 0 0 0 0 0 0 0 0 0 0 0 0 0 0 0 0 0 0 0 0 0 0 0 0 0 0
0 0 0 0 0 0 0 0 0 0 0 0 0 0 0 0 0 0 0 0 0 0 0 0 0 0 0 0 0 0 0 0 0 0 0 0 0 0 0 0 0 0 0
0 0 0 0 0 0 0 0 0 0 0 0 0 0 0 0 0 0 0 0 0 0 0 0 0 0 0 0 0 0 0 0 0 0 0 0 0 0 0 0 0 0 0
0 0 0 0 0 0 0 0 0 0 0 0 0 0 0 0 0 0 0 0 0 0 0 0 0 0 0 0 0 0 0 0 0 0 0 0 0 0 0 0 0 0 0
0 0 0 0 0 0 0 0 0 0 0 0 0 0 0 0 0 0 0 0 0 0 0 0 0 0 0 0 0 0 0 0 0 0 0 0 0 0 0 0 0 0 0
0 0 0 0 0 0 0 0 0 0 0 0 0 0 0 0 0 0 0 0 0 0 0 0 0 0 0 0 0 0 0 0 0 0 0 0 0 0 0 0 0 0 0
0 0 0 0 0 0 0 0 0 0 0 0 0 0 0 0 0 0 0 0 0 0 0 0 0 0 0 0 0 0 0 0 0 0 0 0 0 0 0 0 0 0 0
0 0 0 0 0 0 0 0 0 0 0 0 0 0 0 0 0 0 0 0 0 0 0 0 0 0 0 0 0 0 0 0 0 0 0 0 0 0 0 0 0 0 0
0 0 0 0 0 0 0 0 0 0 0 0 0 0 0 0 0 0 0 0 0 0 0 0 0 0 0 0 0 0 0 0 0 0 0 0 0 0 0 0 0 0 0
0 0 0 0 0 0 0 0 0 0 0 0 0 0 0 0 0 0 0 0 0 0 0 0 0 0 0 0 0 0 0 0 0 0 0 0 0 0 0 0 0 0 0
0 0 0 0 0 0 0 0 0 0 0 0 0 0 0 0 0 0 0 0 0 0 0 0 0 0 0 0 0 0 0 0 0 0 0 0 0 0 0 0 0 0 0
0 0 0 0 0 0 0 0 0 0 0 0 0 0 0 0 0 0 0 0 0 0 0 0 0 0 0 0 0 0 0 0 0 0 0 0 0 0 0 0 0 0 0
Wind_Speed
13 9 10 11 10 11 13 14 15 14 12 10 10 10 10 9 8 8 9 10 10 10 9 7 7 7 6 6 6 4 4 3 3 2 0 0 1 3 3 3 3 3 3
10 9 10 11 14 15 15 15 16 16 15 13 11 8 7 7 8 7 9 11 11 11 10 10 8 8 7 7 7 6 4 3 4 4 2 2 2 3 4 4 4 5 4
14 12 11 13 14 16 17 16 18 17 17 14 7 6 5 4 7 9 10 12 12 12 11 12 10 9 9 8 9 9 8 6 5 4 5 4 5 2 2 4 5 5 5
14 12 11 12 15 17 16 17 18 17 16 16 13 13 13 13 13 10 9 10 12 12 13 12 12 11 9 10 10 10 8 7 6 5 5 4 4 4 3 3 4 6 7
15 15 14 15 15 15 15 16 16 17 16 17 17 17 16 14 8 7 9 11 11 13 13 13 12 12 11 11 10 10 11 9 8 7 4 5 4 4 4 4 4 4 7
15 16 14 12 12 12 13 13 15 17 16 18 19 19 19 16 11 11 12 11 9 10 14 13 13 13 12 12 12 11 12 11 10 8 7 6 5 6 6 7 5 6 6
14 14 13 13 13 13 14 14 16 18 17 18 20 20 21 18 18 15 13 11 10 11 14 14 14 13 13 12 11 11 12 13 12 12 10 9 9 5 6 7 5 6 4
12 13 14 14 13 14 14 15 17 18 17 19 20 19 19 15 13 15 13 12 11 12 11 14 14 14 13 12 12 11 12 10 13 14 13 10 10 8 8 7 6 5 5
12 13 13 13 12 13 14 16 17 17 17 18 18 18 18 17 15 14 13 11 10 9 11 12 14 14 14 13 12 11 13 12 13 13 13 12 10 9 9 8 8 9 9
12 13 12 12 11 11 11 12 14 16 16 16 16 14 17 17 16 13 13 13 12 10 10 12 13 13 13 14 13 12 12 13 13 11 12 13 10 9 9 9 9 10 11
14 13 11 10 9 8 8 10 12 13 12 14 14 14 14 14 14 13 14 13 11 12 12 13 13 13 13 13 13 14 13 15 14 13 14 15 12 10 9 9 9 9 9
11 9 9 7 7 7 8 9 10 11 12 12 12 13 12 11 13 14 13 12 12 12 13 12 12 13 13 13 14 15 15 15 16 15 14 15 10 13 10 9 10 10 9
10 8 7 7 7 7 7 8 9 10 9 9 10 11 11 12 13 13 12 11 11 11 11 12 13 13 13 13 14 14 14 15 15 14 14 13 12 13 10 10 10 8 7
8 7 7 7 7 7 7 7 8 7 7 8 9 10 11 12 12 10 10 10 10 10 11 12 12 12 11 12 12 12 13 13 13 12 12 12 12 13 11 9 10 7 6
9 9 9 8 7 7 6 6 6 6 7 8 9 10 9 8 7 7 8 7 8 9 9 9 10 10 9 9 10 10 11 12 11 10 10 11 12 13 11 8 8 8 6
11 10 10 8 8 8 8 7 7 7 6 8 8 7 6 6 6 7 6 6 7 7 7 8 8 9 8 10 12 11 9 9 10 9 8 7 8 10 11 11 10 9 8
12 11 11 10 9 9 8 8 7 6 6 7 6 5 6 6 6 5 5 6 6 6 6 6 7 8 8 9 10 12 9 8 8 8 6 5 4 6 5 6 7 7 9
11 10 9 9 8 6 6 5 5 6 6 6 6 6 6 6 5 5 5 5 4 4 4 5 5 5 5 6 8 9 8 7 6 6 6 6 5 5 6 4 4 3 3
11 10 9 8 6 5 6 6 5 5 6 6 6 6 7 6 6 6 5 4 3 3 3 2 3 4 4 4 6 6 4 4 4 3 4 5 5 7 9 6 5 4 2
8 8 6 5 5 5 6 7 7 7 7 7 6 6 6 6 6 6 5 3 3 3 3 2 2 3 3 3 4 5 3 3 3 2 2 4 5 7 9 6 6 6 4
8 7 5 5 5 4 6 7 7 8 7 5 5 5 5 6 5 5 4 4 4 4 3 3 1 1 1 2 3 4 3 3 3 2 2 2 6 7 8 7 5 6 7
6 5 4 4 3 3 6 7 7 5 4 5 6 5 5 5 4 5 4 4 5 4 4 3 2 1 1 1 2 3 3 4 3 2 2 3 6 7 7 5 6 9 8
4 3 3 3 0 1 4 6 4 4 5 6 5 5 5 5 5 5 5 4 4 4 3 3 3 2 1 1 3 3 4 4 2 2 4 5 6 5 4 6 9 7 5
3 1 2 2 1 0 1 2 2 4 5 6 5 5 5 5 4 3 4 4 4 4 4 4 3 2 2 1 2 2 3 4 4 3 4 6 6 5 5 5 5 3 3
2 0 2 2 1 1 2 2 2 3 5 5 5 5 4 5 4 3 2 3 2 3 4 3 3 4 3 3 5 4 3 3 4 5 3 3 3 3 2 3 3 3 3
3 3 3 3 2 3 3 3 2 2 4 5 4 4 4 4 4 4 4 6 5 6 5 5 4 2 3 5 6 6 6 8 10 5 3 3 3 3 3 3 3 3 3
Wind_Direction
239 230 220 213 206 202 200 200 201 200 195 197 200 203 208 206 206 206 203 200 199 197 198 201 195 191 198 199 189 178 183 188 152 133 158 291 210 203 202 187 184 191 186
242 230 218 210 207 207 206 205 205 202 200 204 203 203 201 204 206 205 206 204 203 200 202 204 202 199 200 200 194 183 179 186 173 160 159 242 269 232 208 194 199 200 190
234 232 221 214 211 211 209 208 207 205 204 202 192 185 186 192 201 208 211 209 206 205 205 205 204 202 202 208 204 195 192 197 197 187 170 186 223 225 220 213 208 202 201
234 231 223 216 213 215 211 210 209 207 203 198 198 196 204 213 215 210 210 204 205 208 208 207 206 206 207 211 207 203 202 194 202 208 217 208 172 179 221 230 217 209 213
231 231 227 221 217 213 210 209 208 208 202 200 203 205 213 220 213 200 203 206 206 208 210 210 209 211 212 213 208 204 205 207 207 200 190 208 216 202 203 233 218 215 221
231 233 232 224 221 212 209 207 206 209 204 203 206 209 214 215 207 205 209 210 209 210 211 212 213 214 214 214 212 210 210 213 214 211 202 191 193 201 206 225 220 220 217
231 233 232 225 221 213 208 205 205 210 206 204 207 211 215 215 215 213 213 210 211 213 213 210 214 216 218 215 211 211 215 214 214 217 219 218 220 202 199 218 225 225 217
230 232 231 227 224 217 209 205 206 210 206 205 209 212 215 215 219 217 214 213 216 217 210 208 214 217 217 215 212 215 219 217 220 224 224 225 227 219 214 213 211 231 230
233 234 234 229 224 218 212 207 207 209 207 206 208 211 212 214 217 215 214 215 216 213 206 206 212 216 216 216 213 219 220 219 222 226 225 228 230 225 225 221 215 226 243
238 237 235 231 226 221 216 209 209 210 209 207 207 209 212 214 217 215 214 215 215 209 204 207 211 214 216 216 216 221 222 223 225 226 228 230 231 229 226 225 225 226 240
235 236 236 233 229 223 213 208 209 210 207 206 207 209 211 212 214 216 218 217 214 210 211 211 212 214 216 216 218 223 221 225 229 227 228 232 229 230 228 226 227 228 229
239 238 237 234 228 221 214 210 208 208 209 205 204 208 210 208 211 217 219 215 215 213 213 212 214 216 218 217 219 223 225 227 229 230 230 233 229 231 231 230 231 231 226
247 246 240 233 228 222 216 212 209 209 206 198 200 205 207 208 213 217 217 215 215 215 212 212 216 219 219 220 221 223 226 228 231 230 230 232 227 232 230 229 232 231 225
247 247 247 238 231 226 219 214 214 207 198 193 197 204 208 211 214 215 213 213 213 214 214 215 218 219 220 221 221 222 226 229 231 231 230 230 227 230 227 227 228 223 219
250 246 245 242 233 228 223 215 214 202 191 190 199 209 208 205 205 205 207 207 209 213 215 216 218 219 220 221 219 221 225 229 231 231 230 230 228 227 224 222 219 210 213
245 245 244 240 233 226 220 212 210 198 184 193 204 202 193 193 198 201 199 200 207 209 210 214 216 219 221 220 216 217 224 226 229 231 230 228 225 227 225 225 220 207 206
238 237 239 235 229 222 212 209 205 182 181 192 194 188 185 192 199 195 192 202 204 202 209 215 215 222 223 218 216 217 223 226 228 227 223 220 213 212 212 212 215 218 213
238 237 238 239 233 217 202 192 174 172 178 184 187 185 182 187 183 181 193 199 191 194 204 211 216 224 227 219 217 215 221 228 227 219 211 208 203 194 187 183 186 195 203
233 234 233 233 228 209 189 167 172 172 177 188 192 187 180 179 178 184 191 184 177 186 189 191 202 215 226 214 213 205 204 214 219 211 197 192 194 190 180 173 177 175 172
241 237 232 222 217 211 169 166 181 180 195 198 193 180 174 174 180 183 176 165 169 180 173 184 191 197 211 199 197 191 189 202 204 191 184 190 189 184 177 172 172 180 173
239 235 222 215 220 192 163 177 186 200 200 177 165 164 168 170 169 163 159 155 156 158 165 168 161 173 196 193 186 182 181 188 185 181 182 186 185 182 181 175 175 177 155
245 232 214 221 220 173 168 184 202 201 163 154 157 161 160 155 153 152 152 152 155 160 164 161 160 153 153 153 166 166 171 165 170 180 177 178 177 178 173 167 159 151 139
250 227 196 199 189 150 168 191 204 159 150 149 156 155 149 148 151 153 156 155 158 163 168 167 174 176 154 135 136 140 140 146 140 149 156 155 161 156 152 153 148 142 141
278 232 160 165 188 84 119 188 161 149 148 152 153 152 150 145 142 145 153 157 166 169 169 173 175 166 154 150 137 129 121 119 117 118 125 131 133 119 115 131 131 130 144
329 43 148 152 137 73 64 54 90 135 146 145 147 147 144 142 138 132 134 147 149 162 164 171 166 165 174 183 165 150 146 144 139 127 115 117 125 125 122 120 120 124 132
16 44 62 77 66 62 53 37 53 126 143 142 147 148 144 140 141 138 114 90 97 100 110 122 130 122 132 143 153 152 148 147 143 129 139 148 154 161 160 159 155 158 165